STARLINK-5167 (54058 NORAD) Tracking and Keplerian Element Data

This shows tracking and keplerian element data for the satellite.

Feedback or suggestion? Click here.




ElementValue
Catalog54058
NameSTARLINK-5167
Epoch Orbit548
Epoch Day325.33334491
Epoch Year2022
RAAN352.6725
Inclination53.2171
Eccentricity0.0001714
Argument of Perigee44.7035
Mean Anonmoly135.6883
Mean Motion15.46967686
Decay Rate-0.01202158
L11 54058U 22136H 22325.33334491 -.01202158 00000+0 -25760-1 0 9991
L22 54058 53.2171 352.6725 0001714 44.7035 135.6883 15.46967686 5488



Live tracking and technical data element details for STARLINK-5167 (NORAD 54058). STARLINK-5167 can be tracked NOW for your location showing map with azimuth and elevation plus other details from your city location.







IsCatalogInMostPopularTable: catalog: 54058, numindb: 1
Update: records affected: 1



GetName: 54058 STARLINK-5167

Hit Count: updated at: Fri, 09 Dec 2022 19:21:32 GMT